Retour au catalogue

COSMOS 2556

ActifNavigationSSO
NORAD 52713·PAYLOAD·🇷🇺 Russia

Lancé May 19, 2022 depuis Plesetsk Cosmodrome

Loading…

Prochains Passages (prochaines 24 heures)

TLE

FraisSource: Space-Track

Époque: Sep 14, 2026, 15:35 UTC

1 52713U 22054A   26257.64932106  .00001850  00000-0  73912-4 0  9994
2 52713  97.6372 209.2524 0002120 102.2412 257.9064 15.26471263240382

Suivez COSMOS 2556 en temps réel avec AllMySat

Download on the App Store